Weather History for Fort Leonard Wood, MO

Change the Weather History Date:

Friday, July 4, 2014

  Actual Average Record
Temperature  
Mean Temperature 66 °F -  
Max Temperature 81 °F 84 °F 102 °F (2012)
Min Temperature 53 °F 68 °F 53 °F (2014)
Cooling Degree Days 1    
Growing Degree Days 16 (Base 50)    
Moisture  
Dew Point 58 °F    
Average Humidity 75    
Maximum Humidity 100    
Minimum Humidity 46    
Precipitation  
Precipitation 0.00 in - - ()
Sea Level Pressure  
Sea Level Pressure 30.26 in    
Wind  
Wind Speed 4 mph (SE)    
Max Wind Speed 8 mph    
Max Gust Speed -    
Visibility 10 miles    
Events      
Averages and records for this station are not official NWS values.
T = Trace of Precipitation, MM = Missing Value Source: NWS Daily Summary

Daily Weather History Graph

Daily Weather History Graph

Search for Another Location

Airport:

Trip Planner

Search our weather history database for the weather conditions in past years. The results will help you decide how hot, cold, wet, or windy it might be!

Date:

Astronomy

Jul. 04, 2014 Rise Set
Actual Time 5:51 AM CDT 8:33 PM CDT
Civil Twilight 5:20 AM CDT 9:04 PM CDT
Nautical Twilight 4:42 AM CDT 9:43 PM CDT
Astronomical Twilight 3:58 AM CDT 10:27 PM CDT
Moon 12:40 PM CDT (7/4) 12:03 AM CDT (7/4)
Length of Visible Light 15h 44m
Length of Day
14h 41m
Waxing Crescent, 42% of the Moon is Illuminated
Jul 4
Waxing Crescent
Jul 5
First Quarter
Jul 12
Full
Jul 18
Last Quarter
Jul 26
New

Hourly Weather History & Observations

Time (CDT) Temp. Dew Point Humidity Pressure Visibility Wind Dir Wind Speed Gust Speed Precip Events Conditions
12:58 AM 59.4 °F 58.1 °F 96% 30.25 in 10.0 mi ESE 3.5 mph - N/A   Clear
1:58 AM 59.4 °F 59.0 °F 99% 30.25 in 10.0 mi SE 3.5 mph - N/A   Clear
2:58 AM 59.7 °F 59.4 °F 99% 30.25 in 10.0 mi SSE 2.3 mph - N/A   Mostly Cloudy
3:58 AM 58.1 °F 58.1 °F 100% 30.25 in 10.0 mi East 1.2 mph - N/A   Clear
4:58 AM 55.9 °F 55.9 °F 100% 30.25 in 10.0 mi Calm Calm - N/A   Clear
5:38 AM 53.6 °F 53.6 °F 100% 30.27 in 1.0 mi Calm Calm - N/A   Clear
5:48 AM 55.4 °F 55.4 °F 100% 30.27 in 9.0 mi SE 2.3 mph - N/A   Clear
5:58 AM 56.1 °F 56.1 °F 100% 30.27 in 10.0 mi ESE 2.3 mph - N/A   Clear
6:58 AM 59.9 °F 59.9 °F 100% 30.28 in 10.0 mi Calm Calm - N/A   Clear
7:58 AM 63.5 °F 59.9 °F 88% 30.29 in 10.0 mi SSE 4.6 mph - N/A   Clear
8:58 AM 70.3 °F 63.0 °F 77% 30.30 in 10.0 mi SSE 2.3 mph - N/A   Clear
9:58 AM 74.1 °F 58.3 °F 58% 30.30 in 10.0 mi Variable 4.6 mph - N/A   Clear
10:58 AM 76.1 °F 56.8 °F 51% 30.31 in 10.0 mi ENE 6.9 mph - N/A   Partly Cloudy
11:58 AM 76.6 °F 55.9 °F 49% 30.30 in 10.0 mi ESE 8.1 mph - N/A   Partly Cloudy
12:58 PM 78.8 °F 58.5 °F 50% 30.29 in 10.0 mi ENE 5.8 mph - N/A   Scattered Clouds
1:58 PM 78.8 °F 56.7 °F 46% 30.28 in 10.0 mi Variable 4.6 mph - N/A   Mostly Cloudy
2:58 PM 79.2 °F 58.1 °F 48% 30.27 in 10.0 mi SSE 8.1 mph - N/A   Partly Cloudy
3:58 PM 78.8 °F 57.2 °F 47% 30.26 in 10.0 mi Variable 4.6 mph - 0.00 in   Clear
4:58 PM 78.3 °F 56.1 °F 46% 30.25 in 10.0 mi SSE 6.9 mph - N/A   Partly Cloudy
5:58 PM 79.3 °F 57.7 °F 47% 30.23 in 10.0 mi SSE 5.8 mph - N/A   Clear
6:58 PM 78.6 °F 58.5 °F 50% 30.24 in 10.0 mi ESE 5.8 mph - N/A   Clear
7:58 PM 75.4 °F 61.7 °F 62% 30.23 in 10.0 mi SE 3.5 mph - N/A   Clear
8:58 PM 70.0 °F 61.5 °F 74% 30.22 in 10.0 mi ESE 5.8 mph - N/A   Clear
9:58 PM 67.3 °F 60.8 °F 80% 30.23 in 10.0 mi SE 4.6 mph - N/A   Clear
10:58 PM 65.1 °F 60.6 °F 85% 30.25 in 10.0 mi SE 5.8 mph - N/A   Clear
11:58 PM 63.7 °F 60.4 °F 89% 30.24 in 10.0 mi SE 5.8 mph - N/A   Clear